Theta_e
286 287 285 282 285 285 285 287 287 287 289 288 288 288 291 291 287 284 292 292 290 293 296 298 298 297 294 295 294 293 295 293 291 291 293 294 294 295 295 295 295 293 292 293 294 294 293 291 290 290 290 290 289 289 289 290 289 290 288 288 290 291 293 296 299 300 300 300 300 301 301 302 303 303 303 304 303 304 304 306 308 310 311 312 312 311 312
286 286 286 286 282 283 284 285 286 288 288 288 290 290 292 291 289 292 293 293 292 295 296 299 300 298 297 297 295 292 292 292 293 291 292 293 294 295 296 297 296 294 292 292 293 293 292 292 292 291 291 291 290 291 291 290 290 290 287 288 290 290 291 294 296 296 296 297 298 299 300 301 301 300 300 299 300 299 301 302 303 304 305 307 308 309 308
283 285 286 285 285 285 284 286 286 287 286 288 290 290 291 291 291 292 292 291 291 297 299 299 301 292 292 291 291 292 291 290 291 292 293 294 295 296 297 296 296 295 293 291 291 291 293 293 292 292 293 293 291 290 291 290 290 290 288 288 290 291 291 292 293 293 294 295 296 297 299 299 298 297 298 296 297 297 298 298 299 299 299 301 301 303 305
281 285 284 285 285 284 284 284 285 285 285 285 287 287 291 290 288 290 290 289 290 296 299 300 300 300 300 300 299 292 292 292 291 293 295 296 297 297 298 298 297 297 297 296 293 293 294 293 292 292 292 292 290 291 291 291 290 289 287 289 291 292 292 292 293 293 293 294 295 296 295 296 296 295 295 294 295 296 296 295 295 294 296 298 299 299 301
281 285 285 284 282 279 279 281 285 287 287 289 290 291 292 292 293 289 287 288 295 297 298 297 298 299 300 300 299 293 293 293 294 295 297 297 297 297 298 299 299 298 297 297 296 295 293 294 293 293 292 291 292 293 293 291 289 289 288 289 291 292 292 292 293 293 293 293 294 294 294 294 294 293 293 294 294 294 294 294 293 294 297 297 297 297 298
279 283 283 282 280 275 276 289 292 290 287 288 286 287 289 292 293 292 295 295 297 297 297 297 297 298 299 300 299 298 300 299 298 296 296 297 297 297 297 297 297 297 296 295 295 294 294 294 293 293 291 292 293 292 291 289 289 290 290 289 291 292 292 292 293 292 292 292 293 294 293 293 293 293 293 295 294 294 293 291 293 294 294 295 295 295 296
278 281 280 277 273 276 288 292 293 293 292 291 289 290 290 291 292 293 294 295 297 298 299 299 299 300 301 302 301 298 296 298 300 302 301 300 298 297 298 298 299 299 297 295 295 294 293 293 292 291 291 292 291 290 289 289 289 290 290 290 291 292 293 293 292 292 292 292 292 293 293 292 292 293 294 294 292 292 292 292 293 294 293 293 292 293 293
280 278 276 271 273 285 289 290 290 292 293 292 290 288 290 292 292 293 292 294 296 298 298 300 301 301 301 302 298 298 301 300 300 300 300 300 298 297 298 298 300 301 301 299 298 299 298 292 292 291 292 293 291 291 289 290 289 290 291 291 292 292 292 292 292 292 291 291 292 292 292 292 292 293 293 293 292 290 290 291 291 291 291 291 292 291 291
277 279 279 278 284 284 285 285 286 288 287 287 287 283 287 292 293 293 292 293 295 296 297 299 299 300 299 297 298 300 299 298 297 298 299 301 301 302 302 301 300 302 301 301 301 297 294 294 294 294 293 290 290 289 289 289 289 289 290 291 292 292 292 292 292 292 292 292 292 292 292 292 292 292 292 291 290 289 290 290 290 290 290 289 290 291 290
283 278 276 278 277 274 280 287 290 292 293 293 292 288 286 292 293 294 293 293 294 295 296 297 297 297 294 292 294 299 296 297 298 298 299 301 301 301 301 302 300 299 299 299 297 295 295 294 294 294 291 290 290 290 290 289 289 289 289 290 291 291 292 292 292 292 292 293 292 292 292 292 292 292 291 290 290 289 291 290 289 289 289 289 289 290 290
282 279 276 276 275 278 286 287 289 290 292 292 289 285 283 291 293 294 294 293 294 294 294 295 296 293 289 291 294 297 292 293 293 295 297 298 298 298 298 299 299 300 300 299 297 295 293 293 295 293 291 290 290 290 290 290 289 290 290 291 291 291 292 293 292 292 293 293 293 292 292 292 292 291 290 290 290 289 290 290 290 289 289 290 288 288 288
281 281 278 276 280 280 285 284 282 284 290 292 288 277 278 292 294 293 292 293 294 294 294 294 293 290 288 290 295 292 293 294 294 294 296 296 296 296 297 296 296 296 295 294 296 297 296 295 295 292 290 289 290 291 291 290 289 290 291 292 293 293 292 291 292 292 292 292 292 292 291 291 291 290 290 290 289 289 289 290 290 289 289 289 288 288 287
280 281 279 281 281 285 287 286 285 286 289 288 281 275 286 290 289 290 293 293 294 294 293 293 291 293 295 296 297 295 292 292 294 293 291 293 293 295 295 296 293 294 295 295 296 296 297 297 295 292 290 290 291 291 291 290 290 291 292 293 293 292 291 291 291 291 292 292 292 291 291 291 290 290 290 290 289 288 289 289 289 288 288 288 288 287 286
278 280 279 279 283 287 286 283 288 289 289 280 279 291 290 288 288 288 288 289 289 288 289 288 292 294 295 295 293 292 293 291 291 291 292 291 292 291 291 291 291 292 293 293 294 294 295 295 293 291 289 290 291 292 291 291 292 293 292 293 292 290 290 291 291 291 291 291 291 291 290 289 289 289 288 288 288 288 289 289 288 287 287 287 287 286 286
280 280 278 278 274 285 290 288 287 289 284 284 290 287 286 285 286 287 287 288 288 288 288 288 290 291 291 291 292 291 290 289 290 291 291 291 291 292 292 293 293 290 292 293 294 294 295 294 292 289 288 289 291 291 291 292 294 293 292 292 291 290 290 289 289 289 290 290 290 290 289 289 289 288 288 288 287 288 288 287 288 287 287 287 286 286 285
276 278 276 278 284 286 292 292 286 288 293 288 287 289 288 286 284 286 290 288 287 286 286 288 289 289 290 290 289 288 288 288 288 287 288 289 289 290 290 290 290 289 290 291 292 293 293 294 292 289 288 289 290 290 291 294 293 291 291 290 289 289 288 289 288 288 289 289 289 289 289 289 289 288 287 287 287 288 288 288 288 287 287 287 287 286 285
281 280 283 287 284 285 286 289 289 288 291 283 285 288 289 287 288 285 288 289 288 287 288 287 287 287 287 288 289 287 289 289 288 288 289 289 290 290 290 291 290 288 289 290 290 291 292 292 292 290 288 288 289 289 293 293 290 290 290 288 288 288 288 288 288 288 288 289 289 288 288 289 288 288 287 287 287 287 288 288 288 287 287 287 287 286 286
285 286 287 286 283 285 286 285 287 288 288 286 285 289 288 284 287 286 288 289 288 287 286 286 285 287 288 288 287 288 288 288 288 286 287 288 289 289 289 289 290 289 288 287 288 288 290 291 291 290 289 288 288 291 293 291 290 289 288 287 287 288 288 288 288 288 288 288 288 288 288 289 289 289 288 288 288 287 288 288 288 288 287 287 287 286 286
281 280 284 286 288 288 286 287 287 286 286 288 286 288 288 288 287 287 287 287 286 286 286 287 288 287 288 287 288 287 288 288 288 288 288 289 289 289 289 290 289 289 288 288 288 288 288 290 290 290 289 288 288 289 289 289 288 287 287 287 287 287 287 287 287 287 287 288 288 288 288 289 289 289 289 288 288 287 288 288 288 288 287 287 287 286 286
282 283 283 283 282 283 285 285 286 288 287 286 285 286 285 284 286 287 287 285 285 284 286 286 287 288 288 287 288 288 288 288 289 289 289 289 289 289 289 289 288 287 287 287 287 287 288 289 289 289 288 288 288 287 287 287 286 286 287 287 287 287 287 287 287 287 288 287 288 288 288 288 288 288 288 288 288 288 288 289 288 288 287 287 287 287 286
284 285 285 285 286 286 286 285 285 287 288 288 288 286 284 283 284 283 284 285 285 285 285 284 286 287 288 287 288 288 289 288 289 289 290 289 289 288 288 288 287 287 287 287 287 287 287 288 287 287 287 287 286 285 285 285 285 285 286 286 287 286 286 287 287 287 288 288 288 288 288 288 288 288 288 288 288 288 289 290 290 290 288 288 288 288 287
280 281 281 283 280 281 282 282 282 283 284 284 284 285 285 284 284 284 286 287 284 283 284 284 285 286 287 288 287 288 288 288 288 289 289 289 288 288 287 287 286 286 286 286 286 286 286 286 286 285 285 285 283 280 281 283 283 285 286 286 285 286 286 287 287 287 288 288 288 288 288 287 287 286 286 288 288 289 288 287 288 288 289 289 288 288 287
279 282 283 281 284 283 284 286 284 283 282 285 285 286 286 286 285 284 284 286 287 287 285 282 283 284 286 287 287 287 288 288 289 288 288 288 288 288 287 286 286 286 286 285 285 284 285 284 283 283 283 283 282 282 282 284 284 285 285 286 286 286 286 287 287 287 288 288 288 288 287 287 286 285 283 284 285 287 287 287 287 287 288 288 288 288 288
284 282 284 284 285 285 286 284 284 284 283 284 285 286 285 284 283 283 283 284 284 285 285 284 284 284 284 284 283 286 287 288 288 288 288 288 287 287 285 284 284 284 284 284 284 283 283 282 281 281 281 282 281 282 283 285 285 285 285 285 286 286 287 287 287 287 288 287 287 287 287 286 286 285 283 282 282 284 285 285 286 286 287 286 287 287 287
285 282 281 282 282 284 284 283 284 284 283 285 286 286 285 285 285 285 284 284 281 282 283 285 285 285 284 285 283 284 286 287 287 286 286 286 286 285 285 284 284 283 284 283 282 281 281 280 280 280 280 280 279 279 281 283 285 285 285 285 285 286 286 287 287 287 287 287 287 287 286 285 285 285 283 282 281 280 282 284 284 285 285 286 286 286 285
285 283 281 280 280 281 282 280 281 281 281 282 283 283 283 283 284 283 283 283 284 282 283 283 285 285 283 284 285 284 284 285 286 285 284 285 286 286 285 285 285 283 281 281 281 280 279 279 278 278 278 278 276 276 276 278 281 284 285 286 286 287 287 287 287 287 287 287 287 286 286 286 286 285 285 284 283 280 279 280 281 282 284 284 284 284 285
279 278 279 278 279 280 280 278 279 278 279 279 280 279 280 282 283 284 283 282 282 282 283 285 284 283 283 283 283 283 283 285 283 284 284 285 285 285 285 283 281 280 280 280 280 279 277 277 277 277 277 276 273 273 274 277 279 282 285 286 286 283 282 283 287 287 287 286 286 286 285 285 285 285 285 283 282 281 280 280 280 279 279 281 283 284 283
278 276 277 277 277 279 280 279 279 280 280 280 281 281 281 279 280 280 281 282 281 280 282 282 282 282 284 285 281 284 284 282 283 284 284 285 286 284 279 277 278 278 279 278 278 277 276 276 276 276 276 274 273 273 274 276 278 280 283 285 285 285 284 284 286 286 286 286 286 286 285 285 285 285 283 282 281 281 280 279 278 278 277 278 279 282 283
279 277 277 277 278 278 279 280 281 281 281 281 279 280 279 280 281 281 281 282 281 280 281 282 279 282 283 284 281 282 283 284 284 284 285 285 284 280 275 275 276 276 276 276 277 276 275 275 275 275 275 273 271 272 274 275 277 280 282 283 284 283 283 284 284 284 285 285 285 285 284 283 283 282 281 281 281 280 279 278 277 276 275 275 278 278 279
274 274 276 277 278 278 278 279 280 281 281 281 280 280 280 279 280 281 281 282 282 281 282 281 281 282 282 282 282 282 283 284 285 285 285 284 281 274 273 274 275 275 274 274 275 275 274 274 274 274 274 271 270 271 273 275 277 279 280 281 282 283 283 283 283 283 283 284 283 281 282 282 282 282 280 280 279 279 278 276 275 275 275 276 277 277 276
270 272 272 274 275 276 277 278 279 280 280 281 281 280 281 280 279 280 281 282 282 282 283 283 283 283 282 282 283 283 282 282 283 283 283 282 275 272 273 273 276 279 280 278 276 274 273 273 273 273 271 269 269 271 272 274 276 278 279 280 280 279 279 280 281 282 282 281 280 281 281 281 280 280 279 278 277 277 276 275 275 275 275 276 276 275 274
268 271 272 273 274 274 275 277 278 279 279 278 278 279 280 279 278 279 280 281 282 282 283 283 283 283 284 283 280 280 280 280 280 281 280 278 275 271 269 272 274 273 274 273 272 271 271 271 272 272 269 268 269 270 272 274 275 276 277 276 277 278 278 279 280 279 279 278 279 279 278 279 279 278 277 277 276 275 275 275 274 273 274 273 273 272 271
265 269 273 272 270 271 273 275 275 274 273 271 273 274 274 274 275 276 277 278 279 280 280 281 282 282 280 278 278 279 279 279 278 278 277 276 276 270 267 268 269 269 268 267 267 267 267 268 269 268 267 268 269 270 272 273 275 276 276 276 276 276 275 277 277 277 276 277 277 278 277 277 277 277 277 276 275 274 274 273 272 271 271 271 270 270 270
263 264 265 263 263 265 265 266 267 267 268 269 270 271 271 272 273 273 274 275 275 275 276 277 278 277 277 277 277 277 278 277 278 280 281 280 276 267 265 266 267 266 265 265 265 265 265 265 265 266 267 268 268 269 271 272 274 275 275 276 275 275 275 275 275 276 276 275 275 274 276 275 276 276 274 274 274 274 272 271 270 269 269 269 269 269 272
261 261 262 262 263 264 264 264 264 265 266 266 267 268 269 270 270 270 272 272 272 273 275 275 275 276 276 276 276 276 277 277 278 279 280 277 268 264 264 265 265 266 266 265 264 264 265 265 265 265 266 267 268 269 270 272 274 274 275 275 274 275 275 274 275 275 274 273 274 274 274 274 274 271 272 273 272 271 271 270 269 268 267 267 267 268 269
258 258 259 260 261 262 262 263 263 263 264 264 265 265 266 267 267 268 269 270 271 272 273 273 273 274 274 274 274 275 276 277 277 276 275 270 263 264 265 266 266 266 266 265 264 263 264 265 265 264 265 267 268 269 270 271 273 273 273 273 273 272 272 272 272 272 272 272 272 272 272 270 270 271 271 271 271 270 270 269 268 268 267 266 266 266 266
258 257 258 259 259 260 260 261 262 262 262 263 263 264 264 265 265 267 268 268 269 270 270 271 271 271 272 273 274 274 274 273 272 269 267 262 262 264 265 266 267 266 267 265 264 263 263 265 264 264 266 267 267 268 268 267 271 272 272 272 271 271 270 270 270 270 270 270 270 269 269 269 270 270 269 270 269 269 268 267 266 266 265 265 265 265 265
256 257 256 257 258 258 259 260 261 262 262 262 263 264 264 264 265 266 267 268 269 270 270 270 270 270 271 271 271 270 271 268 265 266 265 266 266 266 266 266 264 265 265 263 263 262 263 264 264 265 266 266 266 267 267 266 267 271 271 271 270 270 269 269 269 268 268 268 268 269 269 269 269 268 268 268 268 268 267 266 265 265 265 265 265 265 265
255 256 257 257 258 258 258 259 260 261 261 261 262 263 264 265 266 267 267 267 268 269 269 269 270 270 270 270 271 271 268 266 267 267 266 266 266 264 261 260 260 261 261 263 262 263 264 264 265 265 265 265 266 267 267 267 268 270 270 270 270 269 269 269 268 268 268 268 268 268 268 268 268 267 267 267 267 266 266 265 265 265 264 264 264 264 263
255 256 256 257 258 259 259 260 260 260 261 262 262 262 263 264 264 265 265 266 267 269 269 269 269 269 270 271 271 269 266 265 265 265 263 263 262 261 261 261 261 262 263 263 263 263 263 264 264 263 264 264 265 266 266 267 268 269 269 269 269 269 268 268 268 268 268 268 267 267 267 267 267 267 266 266 266 265 265 265 265 264 264 264 264 263 263
255 256 256 257 258 259 259 260 260 260 261 261 262 262 263 263 264 264 264 265 266 268 268 269 269 269 270 269 266 264 263 263 264 264 264 263 263 262 261 258 261 261 263 263 263 263 263 263 263 262 263 265 265 266 267 267 268 268 268 268 268 268 268 268 267 267 267 267 267 267 266 266 266 265 265 265 265 265 264 264 264 263 263 263 262 263 262
255 256 257 258 259 259 259 259 260 260 260 260 261 262 262 262 263 263 265 266 266 266 266 266 266 266 266 264 263 262 261 261 260 260 261 261 262 261 259 259 261 260 263 262 262 262 262 262 263 263 264 264 265 265 266 267 267 267 267 267 267 266 266 266 266 266 266 266 266 266 265 265 265 264 264 264 264 263 263 263 263 262 262 262 262 262 262
255 255 257 258 259 259 259 259 259 259 259 260 261 260 260 261 262 263 264 265 265 264 264 264 264 264 263 263 262 261 260 260 260 260 259 259 260 260 260 260 260 261 262 261 261 261 261 261 262 262 263 264 264 264 265 266 266 266 266 265 265 265 265 265 265 265 265 265 264 264 264 264 264 263 263 263 263 263 262 262 262 262 262 262 262 261 261
254 255 257 258 258 259 259 258 258 257 258 259 259 259 259 259 259 259 260 262 262 263 262 262 263 263 263 263 262 261 261 261 260 260 259 259 260 260 260 260 260 261 261 261 260 260 260 261 261 262 262 263 263 264 264 265 265 264 264 264 264 264 264 264 263 263 263 263 263 263 263 263 263 263 262 262 262 262 262 262 261 261 261 261 261 261 261
254 255 256 256 256 257 257 257 256 257 257 257 258 258 258 257 257 257 257 258 258 258 259 259 259 259 259 259 259 259 258 258 258 260 260 260 259 258 259 260 260 260 260 260 260 260 260 260 261 261 262 262 262 262 262 262 262 262 262 262 262 262 262 262 262 262 262 262 262 262 262 262 262 262 262 261 261 261 261 260 260 260 260 260 260 260 260
255 256 256 257 256 256 257 256 255 255 255 256 257 258 258 257 257 257 257 256 256 256 256 256 256 256 257 259 259 259 258 258 258 257 257 258 258 258 259 259 259 259 259 259 259 259 259 260 260 260 261 261 261 261 261 261 261 261 261 261 261 261 261 261 261 260 261 261 261 261 261 261 261 261 261 261 261 260 260 260 260 260 260 260 260 260 260
256 256 255 254 255 256 256 255 256 256 256 257 257 257 257 257 257 257 257 257 256 256 256 256 256 256 257 256 257 258 258 257 257 257 257 257 258 258 259 259 259 258 258 258 258 258 258 259 259 259 260 260 260 260 260 260 260 260 260 260 260 259 259 259 259 259 259 259 260 260 260 260 260 260 259 260 260 260 260 259 259 259 259 259 259 259 259
257 256 256 256 255 256 257 258 258 258 258 258 258 258 258 258 258 257 257 257 257 256 256 256 256 256 256 256 257 257 257 259 256 255 257 257 257 257 257 257 258 258 257 257 257 258 258 258 258 258 259 259 259 259 259 259 259 259 258 258 259 258 258 258 258 259 259 259 259 259 259 259 259 259 259 259 259 259 259 259 259 259 258 258 258 258 258
257 256 256 256 256 256 256 256 256 256 256 258 258 258 259 259 258 258 258 257 256 256 255 255 255 255 256 256 256 256 257 257 257 256 256 256 256 256 257 257 257 257 257 256 256 256 257 257 258 258 257 257 257 257 257 257 257 257 257 257 257 257 258 257 258 258 258 258 258 258 258 258 258 258 258 258 258 258 258 258 258 258 258 258 258 258 258
257 257 256 256 255 254 254 254 254 255 255 257 257 258 258 258 256 256 257 258 257 256 256 255 255 255 255 255 256 256 256 256 256 256 256 256 256 256 256 256 257 257 257 256 256 256 256 256 256 256 256 256 256 256 256 256 256 257 257 257 257 257 257 257 258 258 257 257 257 257 257 257 257 257 257 257 257 257 257 257 258 258 258 258 257 257 257
257 257 256 256 256 256 255 254 254 255 255 255 255 257 258 257 256 256 256 256 257 257 256 256 255 254 255 255 255 255 255 256 256 256 256 256 256 256 256 256 256 256 256 256 255 255 255 255 255 256 256 256 256 256 256 256 256 256 256 256 256 256 256 256 256 256 256 256 256 256 257 257 257 257 257 257 257 257 257 257 257 257 257 257 257 257 257
258 257 258 257 257 257 256 255 255 255 255 255 255 255 255 256 256 255 255 255 254 254 255 255 254 254 254 254 255 255 255 255 255 255 255 255 255 255 255 255 255 255 255 255 255 255 255 255 255 255 255 255 255 255 255 255 255 255 255 255 255 255 255 256 256 256 256 256 256 256 256 256 256 256 256 256 256 256 256 256 256 256 256 256 257 257 257
Wind_Speed
13 14 12 6 1 4 5 10 11 12 12 11 15 15 15 11 11 13 8 8 14 20 26 30 22 12 9 10 11 12 11 6 4 6 10 11 12 13 12 13 12 9 8 9 11 11 8 6 8 9 8 8 8 8 8 7 7 8 6 7 8 8 8 10 11 9 6 6 6 7 7 7 8 8 8 7 7 7 8 9 9 9 9 10 10 10 10
12 12 11 7 7 5 6 6 7 11 11 13 15 16 15 16 17 14 17 15 17 17 22 25 26 10 8 11 7 3 2 6 8 7 9 12 13 13 14 13 10 7 8 10 12 9 9 8 9 9 9 9 9 9 10 9 9 8 7 9 8 9 11 12 9 7 7 6 7 6 7 9 8 7 7 7 8 8 8 8 8 8 8 8 9 10 10
8 10 9 7 8 9 14 13 10 7 5 7 12 14 16 16 18 19 20 22 24 17 18 24 27 2 2 5 4 5 5 5 6 8 10 12 13 14 14 12 10 8 9 10 8 8 10 11 11 10 10 9 7 8 10 9 10 8 8 9 9 9 12 9 7 7 7 8 7 8 8 7 7 7 8 7 8 8 8 8 9 8 8 9 8 7 8
9 10 11 12 9 10 13 13 11 9 9 12 11 15 15 15 18 17 18 19 18 15 17 21 25 24 21 25 20 5 4 7 7 10 13 14 14 13 14 13 10 10 12 12 10 10 10 11 10 10 11 9 6 11 10 10 9 6 8 10 10 10 9 7 8 8 8 7 8 8 7 8 8 7 7 7 8 8 8 8 8 6 7 8 7 7 7
12 16 11 11 5 3 10 14 15 17 20 19 17 16 14 16 13 15 15 17 15 17 14 16 22 27 31 29 14 4 8 8 9 12 14 14 11 11 12 14 13 12 12 13 12 10 8 11 11 12 8 7 11 13 10 9 5 8 10 11 9 9 8 8 9 8 7 8 8 8 8 7 7 7 8 8 8 8 9 7 5 8 8 7 8 7 7
7 14 12 6 6 14 12 7 19 21 21 20 21 19 16 15 11 12 11 15 12 14 17 21 25 28 29 24 7 8 9 9 10 12 14 12 10 9 10 12 14 15 12 11 11 10 11 11 11 9 5 10 13 7 6 5 8 8 9 10 9 8 6 8 8 8 8 9 9 8 7 7 7 7 8 9 7 6 6 5 7 7 6 8 7 7 7
9 12 8 7 15 12 8 14 15 16 19 19 21 22 22 20 19 19 19 19 18 18 16 17 19 21 26 26 12 7 9 10 12 15 15 11 7 10 12 15 17 17 14 12 12 12 11 11 9 6 10 12 10 6 4 5 6 6 7 8 8 8 8 8 8 8 9 9 9 8 8 7 7 8 8 6 7 7 6 7 8 8 7 7 6 6 7
4 7 5 10 12 10 11 11 8 9 14 18 19 23 24 24 24 22 20 19 17 17 19 22 23 26 28 26 10 10 14 13 14 13 11 11 9 10 12 14 17 18 16 12 12 14 11 5 9 8 12 10 7 9 3 7 7 7 6 7 9 7 8 9 10 9 10 10 9 8 9 8 8 9 8 8 7 5 4 4 3 3 3 4 6 5 5
12 9 11 15 7 15 13 12 9 7 13 12 16 16 17 19 19 19 20 23 24 24 25 26 26 25 22 17 19 17 12 7 6 10 13 13 12 14 16 14 16 16 15 14 12 9 8 9 11 12 9 2 5 5 7 8 7 7 7 8 9 10 10 9 10 10 10 10 10 10 10 10 10 10 8 7 5 4 4 4 4 4 4 3 3 5 5
11 11 11 6 9 15 14 18 22 12 5 11 12 12 15 11 14 19 22 24 25 26 24 24 24 20 14 16 19 22 4 9 9 11 13 14 15 13 13 14 13 13 13 13 12 10 10 11 12 10 5 6 7 8 10 8 8 8 8 11 10 9 11 11 11 10 10 11 11 11 11 13 12 9 7 5 6 4 5 4 4 4 4 3 3 4 6
10 11 13 11 11 12 11 21 13 7 8 9 6 5 15 11 18 18 21 23 24 23 22 23 20 12 12 17 19 8 5 3 2 4 8 8 7 8 8 9 12 13 11 9 11 9 9 12 14 9 6 6 7 10 10 9 9 10 11 11 10 13 15 13 11 10 10 10 10 11 13 12 10 10 10 9 6 6 6 5 6 5 4 5 4 3 4
11 10 13 13 6 9 11 6 3 4 6 7 8 13 12 18 20 10 8 16 19 19 20 18 14 12 15 19 15 3 1 5 6 3 6 8 7 8 8 7 8 9 9 8 11 13 12 13 11 5 4 6 9 12 11 7 9 12 13 14 16 15 9 7 9 9 9 11 11 10 12 9 9 10 8 7 8 8 7 6 6 6 5 5 6 4 3
14 15 11 7 6 6 10 8 2 1 4 6 11 14 12 1 6 3 11 15 17 16 15 12 14 12 10 8 8 6 4 5 7 6 4 6 6 8 9 11 10 8 9 8 11 13 13 11 8 6 5 6 10 12 10 8 13 14 13 13 13 10 8 8 10 12 11 12 13 11 9 10 8 7 8 9 8 9 8 6 6 6 7 5 6 5 3
12 13 12 12 11 8 7 1 7 7 7 5 12 9 3 6 3 2 3 2 2 1 4 3 7 6 7 6 5 7 8 5 6 7 9 8 8 7 8 11 9 8 8 9 10 12 11 11 10 6 5 8 12 12 9 14 17 11 10 13 11 6 9 10 10 11 12 12 11 10 8 7 9 9 6 7 8 8 7 7 8 8 7 6 6 5 4
1 1 5 4 5 9 9 10 2 3 5 8 5 2 1 2 2 3 2 3 2 1 2 4 5 6 7 7 8 7 7 6 7 8 8 8 9 11 10 11 9 5 8 10 11 12 12 10 8 5 5 9 13 12 13 19 14 8 12 12 9 9 9 9 10 11 10 11 11 8 9 9 9 8 7 8 8 8 8 8 9 9 8 7 6 6 4
6 10 7 9 10 2 15 14 7 8 13 4 6 6 1 0 2 4 1 5 5 3 2 4 6 7 9 10 10 7 7 6 5 5 6 7 8 8 8 7 9 6 8 8 10 11 11 11 9 5 5 10 12 13 18 18 8 9 11 10 9 10 10 10 9 10 10 10 9 8 9 9 9 9 9 9 8 8 9 9 8 9 7 7 7 7 8
7 9 11 6 1 4 5 7 5 1 2 2 4 4 3 2 2 2 1 6 6 5 7 5 4 5 6 8 7 6 8 7 6 6 8 8 9 10 10 11 10 6 8 9 10 12 13 13 12 7 5 8 14 16 20 10 5 9 7 5 7 9 10 10 10 9 8 9 10 9 9 11 11 10 10 10 10 9 9 9 9 9 8 8 8 7 6
5 9 9 1 3 4 6 3 1 1 1 0 3 3 2 4 5 2 3 8 5 4 4 3 5 7 8 8 7 8 8 7 7 5 7 9 8 8 8 10 9 7 7 7 7 10 14 13 12 9 6 6 13 18 14 8 8 6 6 8 9 12 10 9 9 7 9 9 8 9 10 9 10 9 11 11 11 9 9 9 9 9 9 9 8 8 7
3 8 5 10 14 9 6 4 4 4 4 5 4 2 4 3 3 6 8 10 6 3 5 6 6 6 6 6 7 6 7 8 8 7 7 8 8 9 11 11 8 9 7 9 10 9 12 13 11 10 8 7 10 12 12 10 7 6 7 9 10 9 9 8 7 8 10 8 8 8 9 8 7 8 8 8 8 10 9 10 9 9 9 10 9 9 8
8 10 2 1 3 4 4 3 4 5 4 3 5 4 2 3 5 7 7 3 4 2 3 3 4 8 7 7 9 8 7 8 8 9 9 10 9 8 7 9 7 8 8 9 10 10 12 11 10 11 10 9 9 9 9 8 8 7 8 9 10 9 9 7 7 8 9 9 10 8 8 8 9 9 9 9 10 12 13 13 13 11 11 11 11 11 9
10 8 11 7 7 9 8 6 6 7 6 7 6 1 0 1 3 4 2 3 2 1 5 4 5 8 10 6 8 9 10 8 8 9 10 9 9 9 9 8 5 8 9 11 11 11 12 9 8 9 11 10 8 9 8 6 6 8 10 8 8 7 6 6 7 7 8 8 9 9 8 8 7 8 9 10 10 7 6 6 9 11 11 9 8 8 9
9 7 4 3 4 8 4 3 3 3 4 2 4 5 5 4 5 6 8 10 4 4 4 5 5 7 9 9 6 9 8 8 10 11 11 11 9 8 6 6 6 8 8 9 12 12 11 8 8 8 10 10 7 6 6 5 4 8 9 7 7 7 6 7 7 7 8 8 9 9 9 9 8 5 4 8 7 8 8 8 10 11 12 10 10 9 9
6 2 4 1 1 5 6 6 3 2 2 1 5 6 7 6 0 1 4 9 13 13 7 2 4 6 7 9 7 9 9 9 9 9 11 12 12 11 8 8 10 7 8 8 9 11 11 8 8 8 8 7 7 6 5 5 5 7 7 7 7 6 6 7 8 9 8 8 8 8 8 8 8 9 6 3 2 4 8 9 10 10 12 11 16 16 13
6 2 1 3 5 10 6 1 2 4 3 2 5 7 7 6 5 5 6 7 8 12 12 6 1 4 6 6 5 10 12 11 10 11 10 10 9 10 9 8 9 10 11 8 9 11 9 8 9 8 7 5 5 5 5 6 5 7 7 7 8 7 7 6 7 8 7 8 8 8 8 7 8 8 10 8 4 5 4 7 7 9 10 11 14 13 12
11 3 2 2 4 9 5 2 5 5 5 5 9 11 8 7 8 7 8 8 4 6 9 12 7 1 4 7 5 8 10 14 12 10 12 11 11 9 10 10 10 9 9 7 7 8 8 9 9 8 6 4 2 4 4 6 7 7 7 8 9 7 6 6 6 8 7 8 8 8 9 9 9 8 9 11 12 7 4 6 7 6 8 10 13 14 13
8 0 3 7 7 12 11 6 12 11 8 8 7 3 2 4 6 5 7 7 7 5 6 7 10 9 4 9 9 8 10 12 11 10 10 11 11 10 10 10 10 6 7 7 7 7 8 9 9 8 7 3 1 2 3 4 7 8 8 8 8 7 5 6 6 6 7 7 8 8 8 8 8 8 8 7 9 9 9 7 7 7 6 5 9 11 11
7 2 0 8 13 17 9 6 11 4 5 4 1 4 3 5 8 7 7 6 6 6 8 10 8 8 8 8 9 9 9 13 10 10 10 11 11 11 10 6 5 7 8 8 8 7 7 8 8 8 8 4 1 1 1 2 5 8 8 8 7 7 8 6 5 6 6 6 7 7 7 8 8 8 8 7 8 9 8 7 7 7 6 5 4 5 9
6 3 5 6 12 15 12 4 6 11 6 7 8 8 6 4 6 7 10 9 6 6 8 7 7 8 11 9 6 11 9 8 12 10 11 13 12 9 5 5 5 6 7 8 8 7 6 7 8 8 8 5 1 1 1 1 3 6 8 7 7 6 5 7 6 5 5 6 6 7 8 8 7 7 6 7 8 7 7 6 7 8 6 4 4 5 10
11 3 1 6 9 9 11 13 14 15 14 6 5 7 6 9 12 12 13 12 8 6 8 7 6 9 10 11 6 8 11 11 11 12 11 10 10 7 5 4 5 6 7 8 8 6 6 7 8 8 8 4 2 1 2 1 1 4 6 6 6 5 5 5 4 4 4 5 5 6 6 6 6 7 7 7 6 8 7 9 8 7 8 7 9 8 8
8 7 7 6 7 6 9 14 17 18 16 12 7 8 9 7 12 15 16 15 10 10 11 7 6 8 7 8 8 7 11 13 13 11 12 11 8 5 3 4 5 7 6 8 9 6 6 7 7 9 8 4 5 2 2 2 1 3 5 6 5 5 4 4 4 4 4 5 5 6 7 7 7 8 8 8 8 9 9 9 10 10 9 8 7 10 12
13 11 10 10 11 8 9 14 14 13 14 16 14 12 14 8 9 15 19 17 13 12 12 11 11 11 7 7 9 9 8 9 10 11 12 11 6 4 4 3 6 11 9 7 5 5 6 7 6 8 4 4 6 5 1 3 2 1 3 3 4 5 5 6 5 5 5 4 4 6 6 7 7 8 8 8 8 8 9 9 10 9 8 9 8 9 9
12 13 13 12 8 10 13 13 13 13 11 8 10 14 13 11 10 13 16 16 15 13 14 15 14 13 11 7 5 6 7 8 10 12 12 9 8 5 4 4 7 8 8 8 6 5 5 5 8 6 4 5 6 6 4 2 3 2 3 2 3 3 4 6 3 4 3 4 5 6 5 7 7 7 8 8 9 9 9 9 9 9 8 8 8 7 7
7 12 14 10 11 11 13 12 9 13 10 8 10 10 12 11 11 12 13 14 16 16 14 15 14 12 9 9 9 10 10 11 12 13 12 12 11 5 3 4 5 6 5 4 3 3 4 5 6 5 5 6 6 6 7 4 3 3 3 2 3 3 3 4 3 4 4 4 5 6 6 6 6 7 8 7 7 7 9 9 9 8 7 6 7 7 5
3 6 6 4 4 9 12 17 14 14 16 13 11 11 12 11 10 13 15 15 16 18 18 15 15 15 14 14 15 14 13 12 15 16 15 12 9 4 3 3 4 4 3 2 2 2 3 4 5 4 5 6 6 6 6 6 3 4 4 4 3 4 5 4 3 5 5 4 3 4 5 4 7 7 5 6 7 8 8 9 8 8 8 7 6 5 6
7 9 9 10 9 11 11 12 14 13 13 17 18 14 12 12 12 13 14 16 18 19 17 16 17 16 16 16 17 16 15 15 17 17 16 12 7 3 3 3 4 3 3 2 1 3 4 5 5 6 7 7 6 5 5 6 5 3 5 5 5 4 4 3 5 6 6 6 5 6 6 6 5 4 5 8 7 6 8 7 8 8 8 9 7 5 7
7 8 8 9 9 10 12 13 13 13 13 15 17 17 16 14 13 14 16 17 15 15 16 16 16 16 17 17 16 15 16 16 14 13 12 9 4 2 3 5 5 5 5 4 1 1 4 4 6 9 6 6 5 4 4 5 5 3 4 5 5 3 2 3 3 3 4 6 6 5 5 6 7 6 6 7 7 8 9 9 8 7 7 7 7 6 6
5 9 9 10 10 11 13 13 12 13 14 15 16 17 18 16 14 14 14 15 15 14 14 14 15 16 17 17 15 14 14 12 11 9 8 2 2 3 4 4 4 5 4 6 1 3 4 5 7 10 7 5 5 4 4 6 4 3 3 5 5 5 6 5 4 5 5 5 6 7 7 6 7 7 6 8 8 8 8 8 8 6 5 5 5 6 7
6 8 10 10 11 12 13 13 12 13 16 20 19 17 17 17 15 14 15 15 14 13 13 14 15 16 16 16 15 15 14 8 6 5 3 3 4 4 2 1 2 2 3 3 4 4 4 5 8 6 4 4 4 4 4 5 4 3 2 4 5 5 4 6 5 2 4 4 5 7 8 7 7 8 6 6 8 9 9 8 8 7 6 5 5 6 5
7 6 7 9 9 11 13 13 11 12 13 18 20 19 16 16 17 16 15 16 14 12 13 15 14 15 16 15 14 12 8 5 4 4 3 2 1 3 1 3 1 2 2 4 4 4 4 4 4 3 3 4 5 4 3 3 2 0 2 3 4 4 5 4 5 4 4 5 6 6 6 7 7 8 8 8 8 7 7 9 8 6 6 5 5 6 5
11 10 10 10 9 10 10 12 11 11 12 12 15 18 16 15 15 15 15 16 14 12 13 14 13 11 13 14 12 10 3 1 0 2 3 3 4 5 4 3 4 4 4 5 4 4 5 7 4 3 4 4 4 3 2 2 2 2 3 4 4 4 3 3 4 5 5 6 7 7 8 9 9 9 8 7 6 6 6 6 6 6 6 5 6 6 7
11 11 10 9 11 9 10 12 12 11 10 11 12 13 13 13 14 14 14 15 14 12 12 12 10 10 12 10 5 2 2 2 3 2 2 4 3 1 2 0 4 3 4 4 4 4 5 5 4 4 4 4 3 2 1 4 5 4 5 5 6 5 5 4 4 4 4 6 6 8 8 8 8 6 6 7 6 6 6 6 6 7 8 7 7 6 6
13 12 14 13 12 11 10 11 11 12 11 10 11 10 10 11 11 13 13 12 11 9 8 7 7 8 4 2 3 4 4 4 4 5 6 4 1 2 3 1 3 2 5 5 5 5 5 5 5 4 4 3 2 3 4 4 6 6 6 6 7 7 6 6 6 8 7 7 6 6 5 5 8 9 7 7 7 6 8 8 7 6 5 5 5 5 6
12 13 13 13 11 10 10 10 10 11 11 10 7 7 9 9 9 9 9 8 6 5 5 5 4 4 3 2 4 4 3 3 5 4 5 6 6 6 3 2 2 3 6 4 4 4 5 5 5 4 6 4 3 5 6 6 6 7 7 8 8 9 11 10 9 8 10 7 6 6 5 5 6 6 6 6 6 6 5 5 5 5 4 4 4 5 5
13 12 12 12 12 10 9 8 8 8 8 6 4 5 6 7 7 8 9 8 7 8 7 6 6 5 4 3 2 2 2 2 2 1 3 3 5 7 7 4 4 5 8 5 5 5 5 5 5 6 8 8 8 8 7 7 8 9 10 8 10 10 9 10 10 9 8 11 9 6 7 7 7 5 6 6 6 5 5 5 4 4 4 4 4 4 5
15 14 13 13 13 10 7 6 7 7 5 3 3 5 7 7 8 9 8 8 9 9 9 8 8 7 6 5 4 4 3 3 4 4 3 3 4 4 6 6 6 5 7 8 5 6 5 5 8 11 9 10 9 8 8 8 9 9 9 8 9 10 11 9 6 7 6 6 5 5 5 5 4 5 5 5 4 5 4 4 4 4 4 4 5 4 4
13 12 11 10 9 8 6 4 3 1 1 1 2 5 8 9 9 8 9 10 8 6 5 5 6 7 7 5 3 5 6 6 7 7 6 5 5 4 6 7 6 6 10 10 6 6 5 10 12 11 11 10 9 7 7 8 7 7 7 7 7 7 6 6 6 5 4 4 4 4 5 4 5 5 4 4 4 5 5 5 5 4 4 4 4 4 4
10 10 9 8 9 9 9 7 5 3 4 5 7 6 7 8 7 4 4 6 5 4 5 5 6 8 8 7 5 3 4 5 7 8 8 7 7 7 8 10 10 11 9 7 6 6 6 7 10 12 11 11 10 7 7 7 7 7 7 7 6 7 6 7 6 5 5 5 5 6 6 6 5 5 5 5 5 4 4 4 4 4 3 3 4 4 3
9 8 7 7 7 8 8 8 8 7 8 7 5 4 3 4 5 4 5 6 7 8 6 6 6 7 10 9 5 3 2 1 8 8 5 5 5 5 5 5 6 8 7 6 7 9 14 14 13 12 12 11 9 7 7 7 6 6 6 6 6 6 6 6 5 5 5 5 5 5 4 5 5 4 4 4 4 3 3 3 3 3 3 3 3 3 3
7 7 7 6 6 8 8 7 6 6 5 6 5 4 5 4 4 5 6 7 8 6 6 7 8 7 7 7 7 5 6 7 6 5 3 5 5 5 5 6 8 8 5 4 5 5 11 14 13 12 11 9 6 6 6 6 7 6 6 6 6 6 5 5 5 4 4 5 4 4 4 4 4 4 3 3 3 3 3 3 3 2 3 3 2 2 2
5 3 5 5 6 6 6 5 4 4 5 5 5 4 4 4 4 5 5 3 3 3 3 4 5 6 6 6 6 6 8 9 9 8 7 6 7 6 5 5 5 7 7 5 6 6 8 11 10 11 8 6 6 6 6 6 6 6 6 6 6 5 6 6 6 7 5 5 4 4 4 4 3 3 3 3 3 2 2 2 2 3 4 3 2 2 2
5 5 5 5 4 3 5 4 4 5 4 5 5 5 4 3 3 3 4 6 4 4 3 4 4 4 5 4 5 5 6 6 7 7 5 5 6 7 8 6 6 6 6 6 6 6 5 5 6 6 6 6 6 6 6 6 5 6 6 5 5 5 5 5 5 5 5 4 4 4 3 3 3 2 2 2 2 2 2 2 2 1 2 1 2 2 2
4 5 5 5 4 3 1 3 5 5 4 5 4 5 5 4 3 3 4 7 6 5 5 5 6 7 7 6 7 6 7 7 7 6 7 6 6 5 5 6 5 5 5 5 4 5 5 5 5 7 7 5 5 5 6 7 6 5 5 5 4 4 5 4 4 4 4 4 3 3 3 2 2 2 2 2 1 2 1 1 1 1 1 1 1 1 1
Wind_Direction
237 240 243 221 150 198 208 210 217 221 210 206 217 232 234 232 233 245 239 211 227 250 259 270 270 255 230 235 229 220 234 245 279 271 267 273 276 278 279 275 274 272 267 270 279 276 271 269 261 257 255 250 246 250 244 238 217 215 188 187 203 201 206 217 223 218 212 211 209 209 206 206 207 206 204 204 202 200 200 208 210 211 207 204 206 209 213
243 248 249 248 224 243 249 246 232 233 218 215 217 232 229 225 233 238 247 247 236 240 259 268 270 284 204 242 227 227 213 244 246 259 271 271 274 276 275 275 284 279 250 252 259 275 288 268 261 260 255 248 238 235 240 230 225 215 163 201 206 210 211 215 212 203 208 210 208 206 205 207 207 200 198 198 196 201 206 205 206 206 208 208 208 207 206
256 251 255 246 235 232 246 244 245 246 268 251 227 230 235 234 240 236 237 242 247 243 258 272 278 131 346 327 285 234 229 255 260 260 264 267 266 269 276 283 279 265 253 244 258 272 270 264 251 248 249 249 241 241 242 229 224 206 175 193 213 219 230 220 203 198 198 208 202 209 211 207 204 200 200 196 199 203 204 201 203 204 201 205 209 205 202
259 252 246 246 237 235 243 252 248 244 240 246 235 231 224 225 233 233 238 243 250 255 251 263 275 282 272 266 256 243 248 236 240 249 254 256 261 266 273 278 278 285 291 288 268 260 262 264 258 250 250 248 237 244 235 228 216 179 188 205 212 222 229 209 201 196 193 196 201 210 204 211 205 205 200 199 203 202 200 202 205 192 199 205 201 202 204
246 253 240 247 248 253 254 237 233 227 229 230 238 238 234 235 232 238 232 239 241 247 256 265 269 268 266 260 260 222 239 235 235 246 253 256 260 265 274 284 287 283 277 276 272 260 261 259 256 249 245 255 240 239 233 225 162 191 200 205 210 221 222 215 208 198 191 198 205 205 207 203 200 194 196 198 198 195 200 197 180 193 205 197 206 202 199
258 259 258 257 259 241 230 222 221 221 228 230 236 240 235 237 224 238 237 247 242 245 241 244 250 260 266 272 258 199 234 251 250 251 253 255 257 270 277 276 275 272 270 271 268 254 249 256 250 257 236 239 249 243 228 188 194 204 202 207 210 215 215 224 215 195 191 195 203 205 197 196 190 191 191 198 194 190 180 175 187 194 193 197 197 196 196
247 265 280 279 242 250 251 234 231 219 227 230 236 242 239 237 235 237 241 242 243 244 253 259 264 266 271 272 268 249 234 235 248 257 263 263 258 254 259 268 271 269 260 260 272 274 258 247 255 241 249 237 251 262 204 203 211 207 212 201 211 211 211 218 214 203 195 196 200 194 191 190 190 197 196 194 190 190 181 181 185 189 185 188 194 190 187
277 266 229 245 234 254 243 257 259 224 215 220 229 240 238 234 232 233 240 245 249 250 252 254 255 257 261 272 267 247 244 229 246 261 266 265 252 251 248 248 257 267 270 259 257 264 265 242 240 226 241 238 208 239 177 210 201 206 203 205 217 208 217 213 214 206 192 196 194 186 185 186 192 198 197 191 190 187 183 186 191 171 194 184 181 187 184
230 224 235 244 322 295 282 294 259 171 204 198 208 236 243 234 231 227 234 236 237 237 238 242 247 253 265 281 284 257 238 234 227 236 248 252 255 252 256 254 256 258 267 272 269 268 269 255 255 249 251 210 209 221 213 221 200 201 193 213 217 213 219 215 214 208 195 190 191 187 183 186 194 195 189 188 184 167 178 190 185 194 192 180 178 181 177
202 232 256 260 239 249 256 242 247 230 206 206 208 219 254 246 225 219 225 232 236 238 241 244 248 254 272 275 269 275 238 194 218 232 240 247 250 256 260 263 261 263 266 274 275 266 264 263 254 258 238 194 209 221 229 210 199 209 203 219 218 213 219 216 211 208 198 189 190 187 184 193 194 187 175 172 179 167 183 184 199 196 176 184 192 188 181
220 219 233 235 240 240 234 255 259 218 185 205 167 205 246 246 243 223 219 227 233 235 237 242 247 252 253 252 257 293 38 352 308 283 277 280 287 282 279 278 286 290 289 287 293 292 266 267 265 256 240 221 218 239 233 217 209 213 215 221 217 216 219 211 202 202 199 194 193 191 193 195 185 179 180 179 166 165 186 183 191 179 181 181 182 191 199
230 232 232 239 224 251 247 256 283 252 216 161 123 230 242 240 252 242 218 228 233 236 237 241 242 229 239 242 256 97 263 285 257 208 260 267 271 274 274 275 260 269 284 299 296 287 273 261 269 302 246 226 239 247 248 220 221 224 221 220 221 222 213 185 193 194 200 200 199 199 200 187 182 182 168 165 177 178 183 183 181 178 180 181 177 186 178
223 232 248 265 276 257 248 241 250 255 143 113 190 218 230 348 4 282 207 213 224 228 237 227 236 229 239 271 283 281 295 320 307 289 265 260 270 281 286 282 287 293 289 285 280 282 287 287 283 262 223 232 249 250 250 240 238 231 226 229 231 222 197 191 191 196 197 201 200 204 201 190 177 167 174 176 169 176 180 177 164 168 175 175 171 164 165
219 225 234 242 263 252 196 244 178 169 117 205 218 220 109 120 84 357 86 95 18 1 243 200 212 225 230 248 292 305 295 291 280 290 295 305 300 275 263 270 283 287 292 290 289 290 283 283 281 263 234 242 252 254 245 243 243 233 229 235 232 205 203 203 202 198 200 204 203 198 185 172 175 181 175 166 172 175 175 171 169 170 168 166 162 154 156
199 110 232 247 260 263 153 129 78 258 195 233 201 134 40 127 161 51 357 64 302 91 330 279 276 289 304 291 280 283 285 287 282 285 293 296 295 299 308 310 299 299 298 299 296 294 297 297 289 259 226 245 255 256 249 248 244 226 231 233 216 208 209 208 205 205 207 202 197 187 183 181 175 175 167 167 171 170 172 169 170 170 171 167 159 150 156
171 202 199 217 224 179 157 154 195 207 211 183 150 126 153 194 44 284 206 283 217 171 210 260 278 273 273 282 270 270 273 262 264 273 277 280 283 284 277 261 274 297 290 289 293 294 297 296 294 274 222 254 260 259 257 256 247 233 235 225 207 207 210 209 203 205 203 199 195 185 179 172 173 170 174 175 171 175 172 170 169 168 171 168 165 162 161
176 209 219 222 226 206 264 221 231 293 224 98 160 104 105 121 271 251 324 253 249 204 200 207 234 261 243 248 268 278 278 291 287 288 285 282 286 289 292 294 299 298 286 292 298 298 296 299 299 291 243 249 265 264 263 278 259 247 241 222 209 215 215 210 207 204 189 193 191 187 180 173 176 178 175 174 173 177 171 174 173 171 173 171 171 167 158
259 272 242 256 331 289 282 303 226 226 306 255 202 194 164 191 219 192 238 270 257 217 228 191 238 226 260 281 288 286 284 284 284 270 281 289 284 283 289 295 301 299 301 293 290 292 297 298 300 298 273 236 258 266 281 298 267 256 227 217 218 219 217 210 207 184 190 194 190 190 182 184 185 183 180 179 178 175 175 179 177 174 171 172 172 170 171
138 242 275 232 238 242 258 286 274 235 211 231 206 223 239 200 188 243 240 247 260 223 194 206 239 259 259 274 281 283 287 288 287 287 280 278 279 289 297 293 310 314 315 305 299 296 294 299 303 298 294 270 254 272 280 289 290 257 235 225 227 225 215 207 189 183 190 190 188 189 188 186 185 181 180 182 179 178 182 177 178 178 172 172 173 173 175
214 236 196 234 292 251 262 242 280 303 277 207 204 209 193 182 201 207 232 232 269 260 278 258 284 292 303 306 301 295 289 291 300 301 296 293 296 284 274 292 306 301 300 295 295 295 291 293 299 300 304 295 286 278 275 275 271 259 247 234 228 224 212 195 192 187 194 186 183 186 190 187 186 185 186 185 187 187 185 181 177 183 178 180 179 176 173
259 289 279 297 303 291 266 247 242 247 263 303 303 255 322 321 349 321 281 192 234 258 278 292 305 308 301 295 287 292 294 301 301 298 298 295 286 288 301 299 306 296 300 297 289 287 285 290 295 298 300 302 301 291 280 272 253 246 247 242 238 229 202 187 194 187 191 187 190 186 186 191 198 198 189 188 192 198 210 198 190 179 178 178 173 169 162
255 239 257 149 238 262 312 324 278 265 282 277 275 320 327 5 4 343 332 317 280 229 245 263 271 282 293 297 295 288 289 291 295 297 298 296 294 289 274 278 287 289 280 278 288 289 287 294 296 295 298 303 306 301 296 283 256 250 254 247 237 232 201 195 190 184 192 191 191 189 186 186 178 174 196 195 200 188 189 198 195 186 171 177 173 163 168
257 117 192 171 270 273 242 252 284 286 332 10 332 322 313 307 111 267 313 307 314 308 293 196 247 271 280 289 298 296 295 294 289 286 288 295 298 297 301 305 294 284 285 286 285 285 289 301 296 295 295 306 313 318 310 296 275 261 259 248 243 236 215 213 199 192 192 190 188 188 188 182 175 164 127 93 63 188 187 176 181 184 184 169 172 176 170
257 154 286 267 284 271 280 278 321 311 275 305 291 273 274 286 272 259 262 262 275 293 301 310 183 255 280 282 290 290 297 296 298 298 290 280 276 284 290 277 282 293 293 290 286 290 298 299 296 296 296 307 318 320 317 296 277 269 261 252 245 232 223 223 204 200 193 189 182 182 183 180 176 166 150 139 97 52 110 156 166 173 175 164 168 168 173
254 157 194 219 256 284 272 305 289 252 220 217 259 273 281 286 283 272 276 285 260 265 292 300 307 238 274 283 277 279 285 294 297 292 288 290 286 283 284 288 281 275 279 286 285 288 293 295 297 293 294 305 344 335 333 323 302 273 263 259 262 258 240 219 212 202 194 187 185 183 179 178 178 172 167 167 156 136 87 85 116 150 170 169 161 160 153
254 307 2 315 304 283 288 323 285 275 263 244 253 308 329 277 280 287 273 262 272 264 263 273 291 299 283 287 286 280 284 284 291 297 295 290 293 292 281 270 276 280 275 278 278 279 283 284 287 289 288 288 120 309 338 322 312 294 275 263 261 265 249 229 214 207 201 191 186 187 181 182 181 177 177 172 161 138 133 127 96 72 64 117 146 135 139
273 231 171 304 285 277 262 218 270 9 344 321 300 272 259 268 263 262 260 255 254 254 259 268 266 273 281 269 280 279 274 287 299 292 286 289 285 277 278 284 271 271 273 276 274 269 273 278 279 278 279 265 182 57 343 323 313 301 285 265 257 255 248 232 221 216 204 194 187 178 177 180 179 182 175 166 154 155 156 148 141 135 135 121 94 85 138
243 194 158 222 264 277 303 332 291 285 273 276 285 275 267 258 278 284 284 279 270 255 257 254 267 280 280 280 278 289 291 282 279 283 289 288 287 290 283 271 271 267 269 265 268 271 266 272 273 274 273 265 221 128 97 334 317 298 292 270 251 241 232 224 223 215 205 201 191 184 180 180 176 171 158 154 159 157 142 126 129 130 113 92 102 93 116
298 335 203 236 267 293 305 297 290 286 289 275 251 283 310 308 294 287 285 284 282 281 275 274 243 251 263 276 277 274 278 280 283 283 277 278 288 294 290 273 267 265 261 263 263 256 260 262 269 270 267 262 273 151 129 121 270 296 293 282 258 239 222 222 227 221 210 197 194 185 173 164 160 156 156 158 155 148 144 143 137 129 124 132 116 84 67
338 334 338 303 299 306 309 298 296 302 302 303 319 297 289 290 299 297 294 294 297 290 281 280 271 265 254 268 266 253 268 276 278 284 289 288 286 300 276 266 285 268 266 269 263 256 254 257 263 267 269 281 281 264 135 121 187 286 286 280 271 245 223 204 202 207 206 204 193 169 169 165 164 159 157 160 159 154 149 146 145 142 143 145 139 135 131
320 320 316 315 316 319 301 286 287 289 298 307 312 307 293 294 292 294 295 297 300 296 296 294 285 283 272 250 261 261 256 268 278 282 283 287 290 265 233 211 247 275 277 280 281 260 259 265 262 266 290 297 285 281 202 147 151 219 269 267 263 270 247 205 193 188 189 185 178 177 172 168 163 160 160 157 154 151 150 147 149 147 145 145 145 141 140
321 315 317 307 310 301 293 287 290 289 292 312 311 300 307 322 315 303 302 303 302 306 304 300 296 295 296 291 279 279 278 278 280 282 282 283 282 254 222 230 245 260 273 280 278 268 270 270 267 275 320 291 287 283 276 191 148 156 202 231 241 242 222 207 198 187 177 183 181 179 176 168 169 163 157 161 160 155 152 151 149 148 150 147 147 145 148
330 305 289 313 330 315 296 292 310 308 320 325 306 306 310 312 310 305 301 305 311 310 309 302 306 313 323 323 311 301 294 291 286 281 282 279 272 244 202 227 242 252 257 254 272 281 278 271 273 310 300 288 288 283 277 260 174 149 152 174 203 222 232 218 186 171 167 178 188 184 177 173 163 163 166 158 153 151 151 147 141 141 138 138 134 141 147
290 264 305 330 280 290 300 299 306 306 302 298 289 290 290 292 295 294 296 299 298 294 292 296 298 302 307 304 299 295 297 300 294 288 284 280 275 230 198 214 228 229 235 266 281 282 284 279 291 292 295 292 283 279 275 271 248 160 159 169 180 200 205 206 184 179 178 183 176 166 167 157 163 161 150 148 149 149 144 142 138 134 129 126 128 120 140
286 286 285 283 281 273 273 275 286 291 293 295 295 288 284 287 289 285 285 286 284 284 289 292 292 293 292 290 288 287 286 278 276 280 283 283 276 217 182 201 222 221 239 232 287 288 299 300 301 304 298 286 277 272 273 272 254 212 161 159 170 187 199 201 195 185 178 170 160 158 155 154 142 127 135 140 140 138 135 134 135 132 122 118 102 108 103
276 277 277 273 270 266 267 267 268 269 273 273 276 283 286 283 285 284 281 277 280 285 289 291 292 290 286 282 282 281 276 274 273 273 274 275 247 157 187 213 227 239 250 260 192 324 312 301 307 311 299 286 283 282 284 276 252 232 168 143 147 162 176 202 201 154 162 157 158 148 144 130 127 130 134 130 130 133 136 130 129 123 118 123 126 117 112
260 265 269 273 271 272 271 270 270 273 272 273 277 282 284 284 280 281 283 281 280 280 283 287 285 281 278 280 280 279 277 273 273 272 274 249 162 174 209 219 234 238 249 260 302 28 320 310 318 316 303 290 293 296 307 307 268 237 177 146 138 151 159 161 173 186 157 113 126 124 126 129 130 132 129 135 133 132 125 121 116 107 104 108 116 122 117
256 255 261 259 264 266 265 265 268 269 272 274 273 272 276 282 283 279 277 276 275 278 280 276 274 277 277 277 276 273 272 276 273 263 232 200 210 185 244 201 278 331 287 273 353 348 295 317 312 310 304 302 299 305 318 320 281 248 191 153 144 147 150 148 144 148 152 139 136 138 137 132 127 119 112 120 127 129 130 123 120 122 124 126 123 118 113
285 262 255 261 260 264 269 270 266 265 267 274 280 281 279 282 284 283 280 279 280 279 275 271 271 271 268 267 266 266 265 266 253 235 213 191 196 128 98 46 23 355 291 321 328 301 324 321 314 322 308 305 303 311 324 336 329 255 127 134 127 133 138 151 148 138 141 140 135 132 123 124 124 128 126 124 118 110 106 122 124 120 122 121 114 112 113
301 297 292 290 286 277 276 275 271 267 267 267 276 282 288 287 285 284 280 278 276 272 268 269 265 258 264 264 260 256 235 56 223 143 141 132 106 102 94 57 27 3 346 343 334 323 337 340 343 325 310 298 304 301 327 21 52 75 77 94 95 97 101 112 125 130 132 134 124 120 120 123 118 121 118 116 111 115 111 116 119 118 116 114 110 111 114
288 294 290 286 283 284 283 288 287 280 276 275 273 275 281 283 284 281 278 278 281 277 267 263 261 258 261 261 246 148 100 82 77 104 134 124 127 117 83 287 15 359 341 3 341 338 348 359 351 337 315 320 310 313 106 85 87 85 85 84 84 90 91 87 83 89 111 122 126 127 123 109 108 104 109 109 96 97 107 108 108 102 111 117 114 107 99
304 306 305 301 296 296 296 291 290 292 286 280 279 281 287 288 281 276 281 284 282 277 270 274 278 275 265 116 108 93 72 65 73 58 55 45 38 140 115 69 35 344 7 11 351 351 353 0 360 343 327 318 341 41 78 88 89 90 88 84 86 86 87 83 82 80 58 67 75 72 83 85 91 92 89 95 95 99 102 102 103 103 100 90 100 111 118
305 306 305 304 298 296 294 296 294 288 289 289 293 305 307 307 309 309 301 294 296 310 318 321 333 353 31 77 94 74 61 62 64 68 63 51 40 34 67 72 24 356 21 19 14 6 8 2 356 339 351 351 21 47 67 78 87 90 91 91 92 92 90 87 91 89 89 82 61 49 63 74 84 89 90 84 90 94 92 96 101 104 101 100 98 100 97
298 298 300 302 301 297 296 294 292 289 288 293 314 326 326 331 338 336 335 345 355 358 355 352 357 9 19 27 59 83 68 51 56 70 104 100 72 47 34 29 27 24 25 17 16 11 8 357 357 351 357 20 35 55 75 83 88 91 87 84 88 84 86 81 62 50 63 68 81 81 66 48 63 79 85 97 101 94 84 84 88 88 91 95 92 95 102
297 296 302 301 298 307 303 292 289 288 284 297 334 359 3 358 359 2 8 12 16 15 9 8 10 9 10 14 13 9 14 10 1 2 38 58 69 46 26 13 26 22 24 23 18 17 8 7 14 26 26 29 30 29 42 39 44 50 48 58 60 62 62 67 72 67 64 66 69 74 77 76 68 63 73 72 74 88 91 95 94 92 108 115 120 120 123
296 302 302 306 313 314 300 289 282 294 318 332 351 19 18 10 10 12 18 20 24 21 13 12 18 13 4 3 34 44 46 46 41 34 29 19 42 48 28 29 25 27 29 29 24 17 2 17 24 30 38 41 33 36 50 51 50 49 49 52 55 54 61 62 58 46 40 51 65 72 78 75 76 70 70 83 80 97 105 105 107 108 112 117 120 123 120
303 307 313 320 321 323 314 308 312 358 11 24 22 8 5 2 1 359 359 8 23 19 17 23 29 22 26 25 8 8 39 59 56 36 25 24 35 38 38 32 30 29 31 29 26 20 19 19 26 27 25 25 36 44 44 56 57 61 62 67 62 70 70 75 69 66 64 58 59 67 70 71 76 81 82 86 89 93 102 104 105 109 105 102 107 114 113
315 315 318 327 329 332 344 354 4 9 14 17 2 355 352 350 357 356 357 7 12 17 20 16 11 22 26 19 4 14 288 114 83 34 21 31 45 47 43 34 35 30 30 26 30 29 30 33 35 34 36 43 47 43 42 43 40 42 48 50 52 59 59 61 59 62 60 60 56 57 59 62 66 69 69 76 80 83 90 97 106 109 109 115 122 128 133
316 315 315 324 347 0 3 356 358 359 358 350 358 352 350 347 359 13 15 17 13 12 10 16 16 17 20 19 19 13 25 15 61 112 36 30 31 33 29 25 23 20 19 23 22 13 25 28 28 28 31 41 41 37 45 42 42 42 44 44 44 43 43 49 49 50 57 56 58 59 60 65 68 66 69 67 69 73 81 85 90 97 108 122 119 133 132
301 315 334 348 352 349 349 342 347 340 324 331 340 346 352 354 6 2 350 354 7 4 22 20 21 10 12 8 9 12 21 42 49 49 47 38 37 38 29 23 22 25 28 24 21 20 18 19 14 17 19 21 24 30 35 42 43 43 43 41 40 40 42 47 53 51 47 48 47 47 51 56 63 71 76 74 80 85 86 91 94 114 134 130 137 159 157
327 327 308 303 314 333 348 337 320 326 326 329 328 329 347 14 11 353 350 343 318 357 7 37 47 22 358 8 17 20 27 32 42 43 47 39 37 36 32 26 22 23 22 26 27 23 14 11 11 9 11 20 23 26 28 34 39 43 42 42 35 34 32 33 30 33 39 40 44 46 51 52 58 62 69 91 93 100 110 114 111 132 137 161 148 156 161
328 322 325 325 314 290 286 356 346 339 342 346 345 344 347 347 353 356 2 6 358 359 354 1 11 12 10 6 12 17 17 25 25 25 29 30 27 23 18 21 21 20 20 22 20 21 19 16 15 20 20 25 28 26 33 35 38 40 39 39 42 42 41 38 34 36 35 36 39 44 47 42 53 49 58 67 72 76 72 92 97 103 118 158 168 178 163